Regional Weather Roundup
Issued by NWS Portland, ME

Home | Current Version | Previous Version | Text Only | Print | Product List | Glossary On
Versions: 1 2 3 4 5 6 7 8 9 10 11 12 13 14 15 16 17 18 19 20 21 22 23 24 25 26 27 28 29 30 31 32 33 34 35 36 37 38 39 40 41 42 43 44 45 46 47 48 49 50
000
ASUS41 KGYX 071510
RWRGYX
WEATHER ROUNDUP FOR MAINE AND NEW HAMPSHIRE
NATIONAL WEATHER SERVICE GRAY ME
1000 AM EST SUN FEB 07 2016

MEZ002-005-006-010-012-015-018-020-021-024-026-027-029-071600-
MAINE

CITY           SKY/WX    TMP DP  RH WIND       PRES   REMARKS
PORTLAND       SUNNY     37  22  54 W9        30.13R
SANFORD        SUNNY     36  21  55 SW7       30.14R
BAR HARBOR     SUNNY     36  27  69 SW7       30.11R
WISCASSET      SUNNY     36  22  56 VRB5      30.14R
ROCKLAND       SUNNY     35  23  61 W9        30.12R
FRYEBURG       MOSUNNY   40  20  44 VRB5G18   30.10R
LEWISTONAUBURN MOSUNNY   37  19  48 CALM      30.10S
AUGUSTA        SUNNY     36  20  52 W7        30.10R
WATERVILLE     SUNNY     37  21  52 SW9       30.07R
BANGOR         PTSUNNY   37  23  56 W10       30.10R
GREENVILLE       N/A     25  14  63 NW8       30.01R
MILLINOCKET    CLOUDY    30  15  53 NW9       30.09R
HOULTON        CLOUDY    27   7  42 W15G24    30.03R WCI  15
PRESQUE ISLE   SUNNY     25   7  46 NW17      30.04R WCI  12
FRENCHVILLE    SUNNY     10  -5  50 NW20      30.03R WCI  -9
CARIBOU        SUNNY     20   1  43 NW20G30   30.03R WCI   4
$$

NHZ002-005-008-009-011-012-014-071600-
NEW HAMPSHIRE

CITY           SKY/WX    TMP DP  RH WIND       PRES   REMARKS
PORTSMOUTH     MOSUNNY   34  22  61 W8        30.15R
ROCHESTER      SUNNY     34  23  64 CALM      30.13R
NASHUA         SUNNY     36  25  64 E5        30.17R
MANCHESTER     SUNNY     32  22  66 S3        30.15R
CONCORD        SUNNY     33  22  63 S5        30.14R
LACONIA        PTSUNNY   36  19  51 SW9       30.11S
PLYMOUTH       CLOUDY    32  23  69 CALM      30.11S
BERLIN         FLURRIES  33  24  69 VRB7      30.05S
WHITEFIELD     CLOUDY    34  21  59 W6        30.07S
JAFFREY        SUNNY     30  22  72 CALM      30.12S
KEENE          SUNNY     27  21  80 CALM      30.15S
LEBANON        MOSUNNY   37  22  54 N3        30.10F
MT WASHINGTON  SNOWSHWR   9   9 100 W63G74      N/A  VSB 0   WCI -21
$$

VTZ005-007-008-071600-
VERMONT

CITY           SKY/WX    TMP DP  RH WIND       PRES   REMARKS
ST JOHNSBURY     N/A     35  21  56 MISG      30.08S
MONTPELIER     CLOUDY    32  20  61 CALM      30.11S
BURLINGTON     CLOUDY    33  24  69 N12       30.12S
$$

MAZ007-012-024-CTZ003-RIZ002-NYZ038-NYZ072-071600-
SOUTHERN NEW ENGLAND AND NY

CITY           SKY/WX    TMP DP  RH WIND       PRES   REMARKS
BOSTON         MOSUNNY   32  25  74 CALM      30.19R
WORCESTER      SUNNY     35  20  54 W6        30.13R
NANTUCKET      SUNNY     41  32  70 SW8       30.19S
PROVIDENCE     MOSUNNY   36  24  62 CALM      30.18F
HARTFORD       MOSUNNY   32  22  66 CALM      30.17S
ALBANY         MOSUNNY   37  21  52 S5        30.16R
NEW YORK CITY  MOSUNNY   42  23  46 CALM      30.17F
$$

ANZ081-ANZ082-ANZ150-NHZ014-MEZ023>029-071600-
COASTAL MARINE OBSERVATIONS

STATION/POSITION TIME  TEMP    WIND        PRES    WAVE
                       AIR SEA DIR/SP/G            HT/PER
                 (UTC) (F)     (DEG/KT/KT) (MB)    (FT/S)
MOUNT DESERT ROC 1500   38     260/ 17/ 18 1020.0R
MATINICUS ROCK   1500          270/ 18/ 19 1019.7R
ISLE OF SHOALS   1500   35     250/ 10/ 11 1020.7R
JEFFREYS LEDGE   1404      44                N/A     3/ 4
CASHES LEDGE BUO 1450   41 44  280/ 16/ 19 1019.8R   5/ 6
GEORGES BANK BUO 1450   44 45              1023.1R   4/ 9
$$

.............KEY..............
   WCI - WIND CHILL
   TC  - TEMPERATURE IN CELSIUS
   VSB - VISIBILITY IN MILES
   HX  - HEAT INDEX
   FAIR- INDICATES FEW OR NO CLOUDS BELOW 12,000 FT, WITH NO
         SIGNIFICANT WEATHER AND/OR OBSTRUCTIONS TO VISIBILITY.





USA.gov is the U.S. government's official web portal to all federal, state and local government web resources and services.